GSAT-N2 (GSAT-20)

Last updated on Thu Sep 10 2026 00:03:01 GMT+0000 (Coordinated Universal Time)

1 62028U 24214A 26252.59900836 -.00000041 00000+0 00000+0 0 9992 2 62028 0.0151 214.1769 0001461 155.2379 262.8293 1.00273019 6743
UTC large
Height (km)
Speed (km/s)
/
Latitude / Longitude
Inclination (degrees)
Orbital Period (minutes)
Azimuth
Elevation
Range (km)
Doppler Factor

Next 0 passes for location: London (51.5072 / 0.1276)

No passes found over London.
GSAT-N2 (GSAT-20)